Location: Arrakis Observatory
(44.1122°N, 95.7153°W)
Time: 16:29:54
(UTC-05:00)

Iridium 35 - Visible Passes

Search period start: 24 May 2016 00:00
Search period end: 03 June 2016 00:00
Orbit: 776 x 779 km, 86.4° (Epoch: 24 May)

Date Brightness Start Highest point End Pass type
(mag) Time Alt. Az. Time Alt. Az. Time Alt. Az.
24 May 5.4 04:46:54 10° N 04:52:08 71° E 04:57:20 10° S visible
25 May 6.4 04:13:36 10° NNE 04:18:30 39° E 04:23:22 10° SSE visible
26 May 7.3 03:40:39 10° NNE 03:44:44 23° ENE 03:48:48 10° SE visible
27 May 7.7 03:08:29 10° NE 03:10:50 13° ENE 03:13:10 10° E visible
27 May 5.0 04:47:00 10° N 04:52:15 82° W 04:57:28 10° S visible
28 May 5.7 04:13:33 10° N 04:18:42 56° E 04:23:48 10° SSE visible
29 May 6.7 03:40:22 10° NNE 03:45:01 31° ENE 03:49:38 10° SE visible
30 May 7.5 03:07:37 10° NNE 03:11:11 18° ENE 03:14:45 10° ESE visible
30 May 5.2 04:47:12 10° N 04:52:19 57° W 04:57:25 10° SSW visible
31 May 8.0 02:37:07 10° ENE 02:37:14 10° ENE 02:37:21 10° ENE visible
31 May 5.1 04:13:35 10° N 04:18:50 80° E 04:24:03 10° S visible
01 Jun 6.0 03:40:14 10° N 03:45:14 44° E 03:50:12 10° SSE visible
02 Jun 7.0 03:07:11 10° NNE 03:11:30 25° ENE 03:15:47 10° SE visible
02 Jun 5.6 04:47:29 10° NNW 04:52:21 40° W 04:57:11 10° SSW visible
